logo tempoitalia

Diretta Meteo Palermo-Punta Raisi, Italiavenerdì 14 maggio ore 08:20

Mappa
Sereno 19 °C Poco Nuvoloso 24 Ore: T.min 17 T.max 20
Ponente Sud Km/h 20.3 Punto di rugiada: 12 °C Umidità: 63% Visibilità: 10 Km
Il sole sorge alle: 05:55 Il sole tramonta alle: 20:11
14 Maggio 2021 08:20 tempo osservato: Poco Nuvoloso Poco Nuvoloso 19 63 1013 vento: Nord S 20.3
14 Maggio 2021 07:50 tempo osservato: Poco Nuvoloso Poco Nuvoloso 18 67 1014 vento: Nord S/SO 22.2
14 Maggio 2021 07:20 tempo osservato: Poco Nuvoloso Poco Nuvoloso 18 67 1014 vento: Nord S/SO 22.2
14 Maggio 2021 06:50 tempo osservato: Sereno Sereno 18 63 1013 vento: Nord S/SO 16.7
14 Maggio 2021 06:20 tempo osservato: Sereno Sereno 17 67 1013 vento: Nord S 16.7
14 Maggio 2021 05:50 tempo osservato: Sereno Sereno 17 72 1013 vento: Nord S/SO 20.3
14 Maggio 2021 05:20 tempo osservato: Sereno Sereno 18 67 1013 vento: Nord SO 29.6
14 Maggio 2021 04:50 tempo osservato: Sereno Sereno 18 67 1013 vento: Nord SO 25.9
14 Maggio 2021 04:20 tempo osservato: Sereno Sereno 18 67 1013 vento: Nord SO 25.9
14 Maggio 2021 03:50 tempo osservato: Sereno Sereno 18 67 1013 vento: Nord S/SO 25.9
14 Maggio 2021 03:20 tempo osservato: Sereno Sereno 18 63 1013 vento: Nord S/SO 22.2
14 Maggio 2021 02:50 tempo osservato: Sereno Sereno 18 63 1013 vento: Nord S 24
14 Maggio 2021 02:20 tempo osservato: Sereno Sereno 18 63 1013 vento: Nord S 27.8
14 Maggio 2021 01:50 tempo osservato: Sereno Sereno 18 63 1013 vento: Nord S/SO 29.6
14 Maggio 2021 01:20 tempo osservato: Sereno Sereno 18 59 1013 vento: Nord S 24
14 Maggio 2021 00:20 tempo osservato: Sereno Sereno 19 55 1013 vento: Nord S/SO 25.9
13 Maggio 2021 23:50 tempo osservato: Sereno Sereno 19 48 1013 vento: Nord S/SO 20.3
13 Maggio 2021 23:20 tempo osservato: Sereno Sereno 20 45 1013 vento: Nord S 16.7
13 Maggio 2021 22:20 tempo osservato: Sereno Sereno 19 52 1013 vento: Nord S/SO 14.8
13 Maggio 2021 21:20 tempo osservato: Sereno Sereno 19 63 1013 vento: Nord O/SO 16.7
13 Maggio 2021 20:50 tempo osservato: Sereno Sereno 19 63 1013 vento: Nord O/SO 16.7
13 Maggio 2021 20:20 tempo osservato: Sereno Sereno 20 56 1013 vento: Nord O/SO 16.7
13 Maggio 2021 19:50 tempo osservato: Sereno Sereno 20 52 1013 vento: Nord O 16.7
13 Maggio 2021 19:20 tempo osservato: Sereno Sereno 20 59 1013 vento: Nord O 18.5
13 Maggio 2021 18:50 tempo osservato: Sereno Sereno 19 63 1013 vento: Nord O 20.3
13 Maggio 2021 18:20 tempo osservato: Sereno Sereno 19 77 1013 vento: Nord O 18.5
13 Maggio 2021 17:20 tempo osservato: Sereno Sereno 19 77 1013 vento: Nord O/NO 25.9
13 Maggio 2021 16:50 tempo osservato: Sereno Sereno 19 72 1013 vento: Nord O 24
13 Maggio 2021 16:20 tempo osservato: Sereno Sereno 19 72 1014 vento: Nord O 22.2
13 Maggio 2021 15:50 tempo osservato: Sereno Sereno 19 68 1014 vento: Nord O 24
13 Maggio 2021 15:20 tempo osservato: Sereno Sereno 19 68 1014 vento: Nord O 22.2
13 Maggio 2021 14:50 tempo osservato: Sereno Sereno 19 68 1014 vento: Nord O 25.9
13 Maggio 2021 14:20 tempo osservato: Sereno Sereno 19 68 1014 vento: Nord O 29.6
13 Maggio 2021 13:50 tempo osservato: Sereno Sereno 19 72 1014 vento: Nord O 31.5
13 Maggio 2021 13:20 tempo osservato: Sereno Sereno 19 68 1014 vento: Nord O 29.6
13 Maggio 2021 12:50 tempo osservato: Sereno Sereno 19 68 1014 vento: Nord O 33.3
13 Maggio 2021 12:20 tempo osservato: Sereno Sereno 19 68 1014 vento: Nord O 33.3
13 Maggio 2021 11:50 tempo osservato: Sereno Sereno 19 63 1013 vento: Nord O 33.3
13 Maggio 2021 11:20 tempo osservato: Sereno Sereno 19 63 1013 vento: Nord O 35.2
13 Maggio 2021 10:50 tempo osservato: Sereno Sereno 19 63 1013 vento: Nord O 31.5
13 Maggio 2021 10:20 tempo osservato: Sereno Sereno 20 56 1013 vento: Nord SO 25.9
13 Maggio 2021 09:50 tempo osservato: Sereno Sereno 20 52 1013 vento: Nord S/SO 27.8
13 Maggio 2021 09:20 tempo osservato: Sereno Sereno 20 52 1013 vento: Nord SO 27.8
13 Maggio 2021 08:50 tempo osservato: Sereno Sereno 19 52 1013 vento: Nord SO 29.6